Total_Precipitation_Accumulation
0.00 0.00 0.00 0.00 0.00 0.01 0.00 0.00 0.06 0.13 0.04 0.08 0.14 0.30 0.54 0.98 1.50 3.07 1.62 0.82 0.14 0.02 0.00 0.00 0.00 0.00 0.00 0.00 0.00 0.00 0.00 0.00 0.00 0.00 0.00 0.00 0.00 0.00 0.00 0.00 0.00 0.00 0.00 0.00 0.00 0.01 0.00 0.00 0.00
0.00 0.00 0.00 0.00 0.00 0.03 0.00 0.00 0.02 0.06 0.02 0.03 0.20 0.48 0.79 1.12 0.44 0.33 0.47 0.21 0.10 0.00 0.00 0.00 0.00 0.00 0.00 0.00 0.00 0.00 0.00 0.00 0.00 0.01 0.01 0.01 0.00 0.00 0.00 0.00 0.00 0.00 0.00 0.00 0.00 0.00 0.00 0.00 0.00
0.00 0.00 0.00 0.00 0.00 0.00 0.00 0.01 0.01 0.02 0.01 0.01 0.12 0.29 0.45 1.53 0.60 0.49 0.10 0.04 0.03 0.00 0.00 0.00 0.00 0.00 0.00 0.00 0.00 0.00 0.00 0.01 0.00 0.00 0.00 0.01 0.04 0.03 0.01 0.01 0.00 0.00 0.01 0.01 0.01 0.02 0.01 0.00 0.00
0.00 0.00 0.00 0.00 0.00 0.00 0.00 0.00 0.00 0.03 0.05 0.09 0.08 0.35 0.42 0.44 0.22 0.12 0.06 0.03 0.02 0.00 0.00 0.00 0.00 0.00 0.00 0.00 0.00 0.01 0.02 0.01 0.00 0.00 0.01 0.02 0.03 0.06 0.06 0.06 0.04 0.02 0.03 0.03 0.04 0.04 0.06 0.05 0.02
0.00 0.00 0.00 0.00 0.00 0.00 0.00 0.00 0.00 0.04 0.12 0.12 0.36 0.51 0.93 1.29 0.19 0.07 0.12 0.07 0.02 0.01 0.02 0.03 0.00 0.00 0.00 0.00 0.00 0.01 0.01 0.00 0.00 0.00 0.01 0.02 0.04 0.05 0.07 0.09 0.09 0.10 0.11 0.16 0.17 0.14 0.14 0.11 0.07
0.00 0.00 0.00 0.00 0.00 0.00 0.00 0.00 0.00 0.02 0.06 0.25 0.49 0.64 0.40 0.27 0.14 0.19 0.20 0.07 0.03 0.01 0.00 0.03 0.01 0.00 0.00 0.00 0.00 0.00 0.00 0.00 0.00 0.00 0.01 0.01 0.01 0.02 0.02 0.04 0.07 0.09 0.08 0.08 0.11 0.12 0.15 0.18 0.11
0.00 0.00 0.00 0.00 0.00 0.00 0.00 0.00 0.00 0.00 0.02 0.20 0.23 0.28 0.34 0.44 0.70 0.47 0.18 0.03 0.01 0.00 0.00 0.01 0.01 0.01 0.00 0.00 0.00 0.00 0.00 0.00 0.00 0.00 0.01 0.01 0.00 0.00 0.00 0.01 0.04 0.08 0.08 0.07 0.07 0.06 0.06 0.08 0.05
0.00 0.00 0.00 0.00 0.00 0.00 0.00 0.00 0.00 0.00 0.04 0.25 0.05 0.57 0.59 0.31 0.91 0.77 0.09 0.06 0.02 0.01 0.00 0.00 0.01 0.00 0.00 0.00 0.00 0.00 0.00 0.00 0.00 0.00 0.00 0.00 0.00 0.00 0.00 0.01 0.03 0.07 0.05 0.10 0.10 0.07 0.09 0.07 0.08
0.00 0.00 0.00 0.00 0.00 0.00 0.00 0.00 0.00 0.00 0.00 0.08 0.23 0.19 0.33 0.23 0.20 0.11 0.04 0.03 0.04 0.03 0.03 0.03 0.03 0.01 0.00 0.00 0.01 0.01 0.00 0.00 0.00 0.00 0.00 0.00 0.00 0.00 0.02 0.04 0.05 0.06 0.07 0.07 0.11 0.10 0.08 0.06 0.06
0.00 0.00 0.00 0.00 0.00 0.00 0.00 0.00 0.00 0.00 0.00 0.04 0.11 0.22 0.29 0.46 0.49 0.15 0.07 0.25 0.10 0.08 0.06 0.05 0.02 0.02 0.02 0.00 0.00 0.01 0.00 0.00 0.00 0.00 0.00 0.00 0.00 0.01 0.01 0.03 0.07 0.10 0.14 0.15 0.17 0.17 0.13 0.10 0.04
0.00 0.00 0.00 0.00 0.00 0.00 0.00 0.00 0.00 0.00 0.00 0.02 0.13 0.33 0.26 0.33 0.30 0.31 0.24 0.21 0.13 0.12 0.10 0.07 0.08 0.21 0.08 0.01 0.03 0.02 0.00 0.01 0.00 0.00 0.00 0.00 0.00 0.01 0.05 0.06 0.04 0.04 0.07 0.11 0.13 0.06 0.03 0.02 0.03
0.00 0.00 0.00 0.00 0.00 0.00 0.00 0.00 0.00 0.00 0.00 0.00 0.05 0.29 0.87 0.80 0.39 0.31 0.51 0.46 0.39 0.32 0.24 0.32 0.41 0.46 0.15 0.12 0.25 0.21 0.07 0.03 0.02 0.01 0.00 0.00 0.01 0.06 0.11 0.08 0.05 0.07 0.07 0.13 0.18 0.07 0.06 0.02 0.09
0.01 0.00 0.00 0.00 0.00 0.00 0.00 0.00 0.00 0.00 0.00 0.00 0.02 0.39 1.04 1.17 0.89 0.52 0.75 1.49 1.91 0.76 0.35 0.36 0.66 0.56 0.30 0.10 0.10 0.13 0.10 0.14 0.08 0.03 0.02 0.02 0.08 0.15 0.09 0.06 0.05 0.06 0.06 0.12 0.15 0.11 0.05 0.06 0.16
0.00 0.01 0.01 0.00 0.00 0.00 0.00 0.00 0.00 0.00 0.00 0.00 0.00 0.07 0.70 1.01 1.19 1.58 1.00 1.22 1.83 1.04 0.53 0.43 0.56 0.55 0.26 0.06 0.09 0.07 0.08 0.06 0.27 0.66 0.75 0.33 0.23 0.22 0.18 0.18 0.16 0.18 0.17 0.14 0.15 0.13 0.17 0.18 0.28
0.01 0.02 0.01 0.02 0.01 0.01 0.02 0.01 0.00 0.00 0.00 0.00 0.00 0.00 0.22 1.03 0.95 0.82 0.82 0.98 1.31 1.75 1.38 0.66 0.38 0.54 0.40 0.31 0.20 0.13 0.11 0.15 0.33 0.85 0.90 0.87 0.54 0.36 0.37 0.32 0.29 0.37 0.36 0.24 0.31 0.39 0.44 0.25 0.29
0.02 0.08 0.06 0.00 0.01 0.03 0.12 0.06 0.00 0.00 0.00 0.00 0.01 0.03 0.05 0.89 1.35 0.89 0.70 1.04 1.11 1.54 2.90 1.94 0.72 0.29 0.37 0.24 0.19 0.20 0.19 0.20 0.23 0.38 0.44 0.34 0.35 0.51 0.73 0.57 0.67 0.65 0.61 0.67 0.75 0.92 0.45 0.39 0.49
0.03 0.18 0.10 0.02 0.00 0.00 0.12 0.04 0.00 0.00 0.01 0.02 0.00 0.01 0.03 0.17 0.77 1.06 0.87 0.91 1.74 1.70 2.02 2.94 1.75 0.76 0.47 0.57 0.37 0.21 0.28 0.31 0.37 0.50 0.59 0.86 1.33 1.18 1.40 1.08 1.02 0.84 0.94 1.51 1.91 1.09 0.82 0.86 0.88
0.04 0.06 0.01 0.01 0.01 0.01 0.01 0.00 0.01 0.01 0.00 0.01 0.04 0.02 0.03 0.08 0.19 1.09 1.86 1.59 1.50 1.72 1.11 1.19 0.93 0.77 0.63 0.59 0.65 0.52 0.54 0.43 0.54 0.53 1.03 1.18 0.98 1.27 1.00 1.12 1.47 1.34 1.05 1.03 1.11 1.02 0.97 1.03 1.39
0.02 0.05 0.02 0.00 0.00 0.01 0.00 0.00 0.00 0.00 0.00 0.05 0.05 0.05 0.05 0.04 0.12 0.39 2.06 2.50 2.39 2.32 1.99 0.98 0.98 0.83 0.92 1.16 1.06 1.08 0.79 0.59 0.66 0.87 1.31 1.64 1.23 1.37 1.64 1.61 1.60 1.56 1.55 1.79 1.87 1.56 2.05 1.94 1.90
0.00 0.01 0.02 0.01 0.01 0.03 0.03 0.00 0.00 0.00 0.00 0.01 0.02 0.05 0.04 0.03 0.05 0.24 0.94 2.59 3.16 2.63 2.07 1.72 1.39 1.26 1.23 1.06 1.30 1.49 1.47 1.33 1.08 1.30 1.39 1.28 1.66 2.06 2.11 2.53 2.55 2.84 2.42 2.52 2.44 2.32 2.32 2.14 2.27
0.00 0.00 0.00 0.00 0.01 0.04 0.08 0.09 0.01 0.00 0.00 0.02 0.15 0.11 0.05 0.01 0.04 0.35 0.39 0.88 2.09 3.04 1.87 1.39 1.28 1.05 1.36 1.47 1.44 1.62 1.94 2.68 2.89 2.62 2.20 2.88 3.42 3.73 3.71 3.26 3.25 3.23 3.09 3.02 3.22 3.44 4.15 4.72 4.54
0.00 0.00 0.00 0.00 0.01 0.06 0.07 0.04 0.02 0.00 0.00 0.00 0.07 0.18 0.06 0.02 0.07 0.17 0.76 0.66 0.72 1.82 2.64 1.74 1.19 0.96 0.94 1.27 1.65 2.52 3.58 4.31 4.68 4.41 4.28 3.56 2.75 2.93 3.10 3.10 4.08 4.39 4.63 3.97 3.92 4.06 4.18 4.12 3.35
0.00 0.00 0.00 0.00 0.00 0.01 0.02 0.08 0.01 0.01 0.02 0.00 0.02 0.03 0.05 0.00 0.02 0.11 0.48 0.83 0.64 0.75 1.88 2.20 2.39 1.72 1.47 1.71 2.24 3.24 3.52 4.13 4.60 4.20 3.42 3.11 2.85 2.94 2.77 2.75 3.35 3.38 3.58 3.59 3.42 3.21 3.10 3.35 3.54
0.00 0.00 0.00 0.00 0.02 0.04 0.00 0.02 0.00 0.01 0.00 0.00 0.00 0.01 0.03 0.07 0.08 0.12 0.23 0.38 0.82 0.47 0.70 1.33 2.33 2.64 1.89 1.70 1.41 1.81 2.44 2.38 2.56 2.75 2.55 2.08 2.07 2.24 2.50 2.55 3.12 3.96 3.92 3.21 2.56 2.29 2.15 2.38 2.50
0.04 0.15 0.22 0.17 0.17 0.09 0.01 0.01 0.01 0.00 0.00 0.01 0.00 0.02 0.04 0.07 0.13 0.12 0.21 0.24 0.44 0.48 0.32 0.48 1.46 2.06 1.96 1.68 1.15 0.85 0.84 1.11 1.83 2.14 2.33 2.26 2.01 1.66 1.86 2.23 3.13 3.40 3.77 2.79 1.96 1.91 1.91 2.02 2.24
0.12 0.28 0.44 0.51 0.21 0.04 0.01 0.03 0.02 0.01 0.00 0.02 0.07 0.06 0.10 0.16 0.28 0.22 0.25 0.23 0.35 0.24 0.17 0.28 0.94 1.18 1.39 1.25 0.96 0.62 0.58 0.77 0.96 2.11 2.07 1.77 1.82 1.72 1.95 2.90 3.41 3.44 3.41 2.87 2.46 2.27 2.27 2.28 2.32
0.28 0.27 0.18 0.33 0.25 0.38 0.09 0.02 0.02 0.05 0.06 0.09 0.14 0.19 0.29 0.37 0.45 0.59 0.68 0.62 0.61 0.39 0.21 0.23 0.81 0.89 0.76 0.65 0.70 0.68 0.67 0.78 0.93 1.48 2.03 1.45 1.42 1.70 1.92 2.36 2.63 2.51 2.53 2.64 2.22 1.79 1.41 1.56 1.52
0.19 0.21 0.41 0.54 0.94 0.81 0.21 0.06 0.08 0.10 0.12 0.14 0.23 0.32 0.62 0.80 0.91 1.07 1.00 1.19 0.47 0.49 0.31 0.34 0.59 0.62 0.56 0.59 0.51 0.55 0.72 0.88 0.95 1.41 1.47 1.36 1.13 1.03 1.45 1.90 2.00 1.83 1.68 1.65 1.64 1.61 1.59 1.56 1.42
0.33 0.32 0.43 0.66 0.62 1.02 0.70 0.22 0.10 0.08 0.16 0.29 0.39 0.40 0.50 0.58 0.74 0.80 1.03 1.41 1.14 0.68 0.61 0.50 0.69 0.64 0.57 0.43 0.36 0.46 0.60 0.92 1.08 1.29 1.10 0.87 1.14 1.09 0.99 1.41 1.51 1.88 2.54 2.45 2.21 1.78 1.84 1.75 1.93
0.33 0.43 0.66 1.51 1.11 0.96 1.18 0.70 0.16 0.15 0.22 0.29 0.34 0.45 0.41 0.35 0.38 0.54 0.97 1.33 1.93 1.14 0.87 0.67 0.47 0.47 0.34 0.45 0.57 0.52 0.78 1.01 1.47 1.58 1.33 1.00 0.85 0.93 0.79 0.84 1.21 1.21 1.87 2.55 2.22 1.73 1.68 1.81 1.70